Flag for U.S.A. Weather past 2 weeks in Paterson, New Jersey, U.S.A.

Now
81 °F

Sunny.


Feels Like: 80 °F
Forecast: 64 / 84 °F
Wind: 8 mph from Northwest

Location: Essex County Airport

Current Time: May 28, 2015 at 8:33:04 PM

Latest Report: May 28, 2015 at 7:53 PM


Visibility: 10 mi

Pressure: 30.18 "Hg

Humidity: 35%

Dew point: 51 °F

Location of PatersonLocation

Historic Weather in Paterson — Graph

°F

Paterson temperature yesterday

Maximum temperature yesterday: 85 °F (at 2:53 PM)
Minimum temperature yesterday: 69 °F (at 3:53 AM)
Average temperature yesterday: 74 °F

Past Weeks' High & Low Weather Summary

 TemperatureHumidityPressure
High87 °F (May 26, 2:53 PM)94% (May 17, 4:53 AM)30.44 "Hg (May 17, 4:53 AM)
Low42 °F (May 14, 5:53 AM)17% (May 14, 3:53 PM)29.77 "Hg (May 19, 7:53 PM)
Average65 °F57%30.15 "Hg
* Reported May 13 6:53 PM — May 28 6:53 PM, Paterson, Weather by CustomWeather, © 2015

Note: Actual official high and low records may vary slightly from our data, if they occured in-between our weather recording intervals... More about our weather records

Advertising

Paterson weather history for previous 24 hours

 ConditionsComfort  
Time TempWeatherWind HumidityBarometerVisibility
6:53 PM
Thu, May 28
84 °FPassing clouds.N/A36%30.15 "Hg10 mi
5:53 PM87 °FSunny.N/A37%30.12 "Hg10 mi
4:53 PM85 °FScattered clouds.9 mph53%30.12 "Hg10 mi
3:53 PM86 °FPassing clouds.8 mph49%30.12 "Hg10 mi
1:53 PM85 °FSunny.13 mph55%30.14 "Hg10 mi
12:53 PM83 °FScattered clouds.3 mph61%30.16 "Hg10 mi
11:53 AM79 °FPassing clouds.7 mph69%30.16 "Hg10 mi
10:53 AM76 °FPartly sunny.5 mph74%30.17 "Hg10 mi
9:53 AM74 °FOvercast.9 mph79%30.17 "Hg8 mi
8:53 AM72 °FLow clouds.5 mph84%30.18 "Hg6 mi
8:03 AM71 °FFog.3 mph87%30.16 "Hg5 mi
7:53 AM71 °FFog.No wind87%30.16 "Hg5 mi
6:53 AM70 °FFog.5 mph90%30.17 "Hg4 mi
5:53 AM70 °FFog.No wind90%30.16 "Hg5 mi
4:53 AM70 °FFog.3 mph90%30.14 "Hg6 mi
4:02 AM70 °FMostly cloudy.No wind90%30.13 "Hg7 mi
3:53 AM70 °FMostly cloudy.No wind90%30.14 "Hg7 mi
2:53 AM69 °FFog.No wind90%30.14 "Hg5 mi
2:02 AM69 °FOvercast.No wind93%30.14 "Hg8 mi
1:53 AM69 °FMostly cloudy.No wind93%30.15 "Hg7 mi
12:53 AM68 °FLow clouds.No wind93%30.15 "Hg7 mi
12:02 AM69 °FPassing clouds.No wind90%30.13 "Hg10 mi
10:53 PM
Wed, May 27
70 °FClear.No wind90%30.16 "Hg10 mi
9:53 PM71 °FPassing clouds.3 mph90%30.16 "Hg10 mi
8:53 PM72 °FCloudy.No wind84%30.15 "Hg10 mi
Weather by CustomWeather, © 2015

See weather overviewHow to use our weather pages